Theta_e
333 332 330 329 328 328 329 330 330 331 331 333 333 333 335 335 336 340 347 347 346 344 343 343 347 352 350 348 346 347 340 350 354 352 349 352 357 359 360 361 361 360 358 360
334 332 329 328 329 329 329 330 330 330 331 333 332 332 333 334 334 338 347 346 345 344 345 344 349 351 351 348 350 344 341 341 353 352 347 348 355 354 360 360 361 361 358 356
334 333 330 329 328 329 330 330 330 330 331 332 333 337 336 336 336 338 348 347 347 347 347 348 349 354 354 347 345 344 343 344 348 347 347 348 352 352 360 362 361 361 360 359
334 334 333 331 332 332 331 331 332 332 331 332 335 338 338 337 338 339 342 348 349 349 348 351 352 357 359 356 346 344 346 350 355 356 347 349 352 353 359 360 359 357 356 358
336 336 334 332 333 333 332 332 332 332 332 335 339 341 344 347 340 341 342 349 350 349 349 350 354 357 361 362 354 348 349 351 356 349 345 342 358 361 361 360 360 357 355 356
337 336 337 334 335 335 334 334 341 341 342 343 343 344 354 353 352 345 346 349 350 350 349 351 356 359 361 362 360 353 348 343 342 340 346 348 362 361 360 361 359 359 359 356
338 339 337 339 337 335 336 344 344 345 346 346 347 349 348 355 359 351 347 349 350 350 349 352 356 359 361 358 355 347 341 338 338 338 343 363 362 361 360 359 359 357 355 347
337 338 341 339 338 337 348 345 346 347 349 347 347 347 351 359 361 357 348 349 351 351 350 354 356 359 357 355 351 344 342 343 338 343 364 362 361 360 360 358 356 356 349 347
334 336 343 341 344 343 343 345 345 348 349 347 347 347 352 359 361 357 350 348 350 351 351 353 356 359 356 352 347 350 353 359 355 362 364 364 364 359 360 358 355 353 351 349
335 343 344 343 343 343 343 343 342 344 347 350 346 347 354 359 361 357 351 348 350 351 352 353 356 357 355 353 350 357 361 364 365 364 365 363 361 359 357 353 352 350 350 349
344 344 343 342 340 341 342 341 341 342 344 348 347 348 354 358 362 363 359 353 352 353 353 354 355 355 359 360 361 362 366 366 365 365 361 359 356 356 350 349 348 349 350 349
337 341 341 341 337 339 341 341 341 342 343 345 349 346 353 356 362 362 362 364 360 357 357 355 354 358 360 359 359 362 365 362 364 361 359 357 354 350 349 347 346 350 349 347
340 338 336 335 335 334 340 341 341 342 343 344 345 347 353 357 361 362 361 364 364 362 360 358 354 354 357 358 359 360 361 360 361 356 356 353 351 348 347 346 346 347 345 346
339 337 336 335 335 333 333 334 338 343 343 343 344 347 350 358 360 361 360 361 362 361 361 360 357 355 354 355 354 352 351 349 354 355 350 347 346 345 344 342 339 342 344 343
337 334 336 335 333 334 331 332 331 336 345 344 345 345 348 352 357 358 359 359 358 358 359 359 358 356 356 352 350 341 340 347 348 344 341 341 345 341 340 339 340 341 342 341
334 332 331 330 330 330 329 330 331 331 334 345 346 348 348 348 349 350 354 356 359 357 356 356 355 344 344 352 348 344 342 342 341 340 341 344 345 343 340 342 340 340 342 339
328 328 328 329 328 328 329 329 328 328 329 335 342 349 352 351 349 350 354 357 358 356 357 356 353 336 337 340 342 340 342 339 335 342 347 343 346 344 343 342 339 336 334 332
325 325 325 326 326 326 326 326 326 326 327 332 340 348 350 354 352 350 351 357 357 356 356 358 351 340 338 341 345 342 344 338 343 348 346 345 344 344 343 342 340 338 336 333
332 331 329 326 324 324 323 323 323 324 324 331 340 346 349 351 354 352 350 350 355 358 357 358 357 348 342 338 345 342 345 344 343 345 345 344 343 342 342 341 339 337 334 329
336 337 336 335 336 331 325 324 324 324 324 327 340 349 350 350 352 354 351 351 350 351 356 357 354 349 342 337 339 344 348 347 344 346 345 344 342 341 340 339 338 335 331 325
339 338 339 337 338 337 330 328 328 327 326 327 342 350 351 351 352 353 353 352 352 351 353 355 352 350 348 338 341 348 348 347 345 345 343 341 340 340 340 338 335 333 329 326
337 339 341 340 337 337 333 332 332 332 330 333 343 348 350 350 351 351 343 349 350 350 351 354 354 347 344 346 346 346 346 345 344 343 343 342 341 340 339 336 333 330 328 325
331 335 339 342 341 337 334 333 333 332 332 337 342 347 349 348 347 346 345 345 345 349 351 352 353 348 345 346 344 344 344 344 344 343 343 341 341 338 336 333 331 329 327 324
329 330 336 340 341 341 338 336 334 334 336 340 345 348 347 346 345 344 344 344 344 345 345 348 347 347 345 344 342 343 343 344 344 344 342 340 339 336 334 332 330 329 326 324
330 330 330 335 339 342 340 337 336 335 338 344 345 345 346 345 343 343 344 344 343 342 342 342 345 344 344 343 341 342 344 344 343 342 339 338 336 334 333 332 330 327 325 322
329 329 328 329 331 338 339 340 337 335 336 339 340 342 344 342 342 342 342 340 340 337 337 338 339 343 342 341 343 344 344 342 340 338 337 336 335 334 332 330 328 325 322 319
326 326 327 328 327 330 337 339 340 339 338 338 339 342 343 341 341 340 337 334 334 334 334 337 339 340 338 337 338 338 338 337 337 336 335 334 333 331 330 328 325 321 319 316
Wind_Speed
12 8 8 14 17 20 21 19 17 12 11 11 3 3 13 8 6 12 21 30 32 31 31 32 32 35 39 38 35 33 27 27 28 25 23 21 19 18 17 16 13 12 11 10
11 6 7 11 17 19 18 19 16 17 17 13 10 5 8 11 11 16 24 31 32 30 31 35 33 36 39 40 38 40 28 29 26 26 24 24 23 21 20 16 13 12 11 9
12 15 10 12 13 15 11 11 14 15 13 16 7 7 7 6 12 19 26 31 32 34 32 34 35 36 38 39 37 41 34 24 25 27 25 24 23 22 19 17 14 11 11 10
11 15 14 11 14 14 14 13 13 14 15 10 4 8 13 8 10 17 24 31 32 33 32 30 31 31 31 32 35 38 33 26 24 25 23 21 20 23 20 18 17 14 14 12
13 10 10 17 7 8 11 13 15 18 13 6 9 15 3 2 5 12 23 30 31 32 31 29 29 31 28 25 30 33 30 27 27 26 24 21 20 21 21 19 18 16 15 16
11 14 17 14 10 10 0 7 8 8 7 7 12 11 9 3 1 6 16 24 27 27 26 28 28 27 28 27 27 31 31 29 27 26 24 21 23 23 21 19 18 15 15 14
14 10 15 18 7 7 10 4 6 6 5 7 7 8 6 6 1 6 11 17 21 24 26 27 28 31 32 30 31 33 31 29 29 28 24 22 23 23 22 18 18 19 18 16
13 18 16 15 14 10 7 10 4 4 5 7 8 8 4 2 1 6 11 15 19 22 25 27 32 36 30 31 33 34 33 33 31 28 25 24 23 22 21 22 23 22 16 12
15 11 12 4 14 11 6 8 3 1 4 6 8 6 4 1 3 5 10 13 16 19 22 25 30 31 33 36 34 34 34 33 33 30 28 26 27 23 22 24 18 16 13 10
13 11 8 11 11 10 7 6 2 2 4 6 6 5 5 2 3 5 8 12 15 17 19 22 25 23 23 28 33 33 32 31 30 31 30 27 22 22 17 17 15 14 12 12
7 8 9 8 8 7 4 3 2 2 3 5 5 4 5 4 4 5 7 10 12 14 16 18 21 20 20 20 22 24 26 28 30 29 26 27 28 25 23 24 20 15 13 12
9 20 10 13 7 3 2 3 3 3 4 5 6 4 5 5 6 6 6 8 10 12 14 18 22 21 20 23 22 24 27 30 28 28 28 32 32 31 25 25 24 20 17 18
11 13 14 11 9 5 3 3 4 3 3 5 6 4 4 6 7 7 7 8 10 12 15 18 21 24 23 23 26 29 32 31 32 28 28 26 29 34 30 25 25 22 20 18
14 9 8 7 8 3 3 3 4 3 4 4 5 4 3 7 7 8 8 9 13 15 16 17 20 23 27 28 33 31 28 33 33 29 24 23 20 27 28 25 24 23 21 17
5 2 2 2 3 4 4 5 5 5 4 4 5 4 3 7 9 9 9 9 11 12 13 15 17 19 21 22 27 25 32 35 34 31 19 13 19 23 19 18 20 22 20 19
4 3 2 6 7 9 10 9 9 7 7 6 6 5 5 5 7 8 10 10 12 12 12 13 15 13 17 23 23 23 25 27 28 25 29 35 26 28 18 18 17 19 20 22
10 11 12 13 13 13 12 12 12 12 11 10 9 7 6 4 5 7 9 11 13 13 14 14 15 16 7 10 16 13 16 21 22 27 23 27 25 20 18 20 18 14 15 16
18 19 21 22 22 22 20 19 18 16 15 14 12 11 7 5 4 7 10 12 13 14 15 16 17 19 14 19 23 23 16 25 27 17 18 20 19 18 20 20 17 16 17 22
15 17 19 22 24 26 26 25 24 21 18 16 15 14 10 8 6 7 10 15 16 16 17 17 21 21 19 25 28 28 17 21 26 25 21 22 22 21 19 20 20 21 22 18
12 15 17 20 21 22 23 21 21 21 19 17 16 15 13 10 8 9 10 14 17 18 17 19 24 24 26 28 31 26 23 23 26 25 22 22 22 23 22 22 23 23 21 18
10 12 14 17 18 18 19 17 17 19 19 18 16 15 14 11 10 10 12 14 15 18 19 27 25 24 26 36 31 25 24 27 30 29 27 26 25 25 24 25 25 24 22 20
10 11 12 10 12 14 15 16 16 16 17 17 16 15 14 12 11 12 14 14 10 19 23 24 28 28 27 31 34 30 24 25 26 28 27 27 26 27 26 26 26 24 23 21
12 12 11 10 8 10 12 14 16 16 17 17 15 14 14 13 12 12 12 12 15 17 20 21 27 31 34 35 34 37 30 27 28 28 28 27 28 28 28 27 26 25 23 21
13 13 11 12 9 9 11 12 13 15 16 16 14 13 13 12 13 13 12 14 16 22 23 21 27 33 43 44 34 36 33 32 31 29 27 28 28 27 28 27 28 25 22 22
13 13 11 11 11 9 9 9 11 13 14 14 13 12 12 13 14 11 11 13 21 22 19 21 28 27 38 44 39 32 32 32 29 29 28 28 27 27 27 28 26 23 23 22
14 13 12 10 11 10 11 9 10 13 15 14 14 14 12 13 13 13 12 15 16 21 18 25 24 31 37 38 36 35 30 29 32 30 29 28 27 29 28 26 25 26 24 22
15 14 13 11 11 9 9 10 12 15 16 17 17 14 13 13 14 14 15 16 18 17 15 24 22 26 33 25 25 28 27 27 28 30 29 27 26 26 26 25 24 24 24 23
Wind_Direction
285 284 294 209 204 226 238 256 271 252 246 272 281 323 354 70 160 165 187 183 190 193 189 191 184 190 199 198 195 197 205 189 205 206 208 207 206 206 212 212 211 211 217 213
290 235 247 256 211 213 221 234 256 275 285 303 317 304 295 297 210 197 191 191 193 198 187 187 191 199 206 203 197 200 203 197 201 212 215 207 207 213 210 210 200 207 212 200
243 240 218 241 222 234 223 216 241 254 250 252 249 2 312 254 211 200 190 199 194 197 195 196 198 202 208 209 205 205 209 205 210 211 206 207 210 207 206 202 191 191 191 178
241 231 218 245 216 208 220 224 243 239 264 292 20 295 272 220 217 207 200 199 196 199 202 201 202 204 202 206 205 204 210 204 205 199 197 203 208 204 199 199 186 178 178 178
249 220 216 235 152 211 228 248 259 260 245 14 329 306 151 289 251 231 203 200 200 200 202 198 198 199 197 193 195 202 204 200 198 201 199 205 202 196 194 186 184 179 178 181
254 239 250 224 189 105 76 242 56 16 8 349 316 286 72 27 232 212 191 196 196 197 197 194 195 192 187 187 187 194 195 199 200 198 204 212 190 194 191 186 184 166 176 178
235 254 250 84 16 164 214 81 57 32 7 325 307 353 252 300 337 191 195 188 190 191 192 188 186 186 185 185 190 193 195 197 197 197 206 193 193 188 183 174 179 176 175 185
248 249 239 144 175 220 95 104 68 32 351 319 304 290 237 295 216 184 182 182 184 186 185 183 184 186 180 185 189 192 194 192 191 192 176 188 187 185 178 178 181 184 179 172
235 245 118 128 85 102 95 110 113 88 347 324 306 280 218 92 145 167 169 177 177 179 179 181 184 188 184 185 187 179 182 182 181 175 169 180 178 176 172 185 176 175 175 177
221 121 123 110 110 101 87 94 96 61 346 332 315 267 226 187 156 148 148 156 166 172 179 179 184 186 187 183 184 180 179 179 174 168 175 169 171 170 173 178 185 185 184 191
128 87 117 142 92 89 85 69 46 18 335 339 321 282 228 198 187 159 146 149 156 167 176 176 173 172 177 170 176 177 181 175 174 172 167 164 172 174 177 185 189 198 199 202
241 167 202 130 115 103 86 58 30 5 325 323 334 295 229 205 195 180 160 152 152 157 162 170 170 169 177 176 173 176 179 182 178 174 169 180 174 176 185 187 192 191 198 209
95 77 104 125 114 87 79 49 15 360 328 311 326 316 233 207 200 190 167 160 153 150 157 168 172 179 189 185 184 179 185 187 175 174 173 173 177 184 191 194 198 202 212 218
113 120 146 162 138 70 38 18 359 337 342 326 328 314 232 207 202 196 183 164 151 147 153 165 173 191 202 204 203 198 200 196 184 173 172 172 177 191 201 206 205 209 217 225
147 208 190 186 233 246 309 321 329 323 326 340 336 327 265 226 218 212 204 198 192 190 187 187 188 196 209 204 209 208 197 185 186 185 231 231 200 200 189 197 203 212 217 216
214 227 220 252 265 272 283 285 287 289 299 308 328 325 304 257 234 228 218 208 198 197 199 182 171 184 195 205 201 201 206 226 221 218 214 195 193 206 198 187 196 222 207 207
274 266 263 263 265 268 274 278 278 283 285 290 297 306 311 289 239 223 208 206 204 202 206 191 183 189 184 195 181 188 206 200 198 187 187 191 201 194 187 186 191 190 190 211
263 267 267 267 267 268 268 266 268 275 277 280 285 289 297 300 275 236 218 208 215 215 213 208 198 201 206 191 186 188 196 180 177 181 192 199 203 205 199 194 188 191 195 213
274 274 270 266 265 264 263 262 260 261 262 264 271 273 276 275 265 248 227 220 216 221 228 215 221 209 206 201 188 173 183 193 192 195 204 201 202 203 199 197 196 198 202 206
279 278 272 267 265 259 259 257 256 254 251 251 256 259 262 261 257 248 234 227 223 225 220 217 218 205 204 193 181 184 190 196 191 202 204 204 204 205 204 203 201 200 202 197
301 293 287 274 263 258 254 255 254 251 246 240 245 250 255 256 251 240 235 235 229 214 215 215 214 196 199 193 186 186 202 203 201 205 211 206 202 202 201 201 201 201 202 202
349 333 313 296 268 259 256 254 252 249 239 235 238 245 250 247 237 244 235 222 226 218 215 213 213 203 200 202 201 192 206 207 209 208 207 202 199 197 201 202 202 202 205 202
354 343 333 316 300 279 264 257 253 242 231 233 240 243 244 241 236 236 244 259 215 218 207 214 218 199 204 209 205 200 210 212 214 213 208 205 201 200 200 201 200 204 204 202
341 340 339 332 311 288 273 264 245 239 235 236 240 235 227 236 248 247 242 241 231 231 221 220 223 217 210 213 208 196 209 209 211 210 209 204 203 201 200 200 199 200 201 203
325 328 331 329 327 299 274 264 251 238 233 236 232 235 240 247 243 249 246 230 247 248 235 228 232 231 217 217 206 209 209 207 205 206 203 203 204 203 199 201 198 197 198 198
309 310 312 311 316 309 293 278 251 242 233 238 243 245 255 251 244 237 244 250 241 260 236 239 231 220 216 211 204 198 198 200 199 198 203 201 201 204 201 198 195 196 195 192
294 292 292 300 306 303 300 284 273 260 250 249 258 260 245 250 247 245 267 258 265 251 229 225 231 214 200 201 202 197 198 197 199 200 196 198 197 203 201 198 197 192 193 193